[[{"header":{"parameterUnit":"m.s-1","parameterCategory":1,"la1":30.2991,"la2":30.254,"lo1":-89.0895,"lo2":-89.0444,"dy":0.0017,"dx":0.0017,"nx":28,"ny":28,"refTime":"2023-11-02T03:00:00:Z","depth":0,"parameterNumber":2,"parameterNumberName":"U-component_of_WINDS"},"data":[0,0,0,0,0,0,0,0,0,0,0,0,0,0,0,0,0,0,0,0,0,0,0,0,0,0,0,0,0,0,0,0,0,0,0,0,0,0,0,0,0,0,0,0,0,0,0,0,0,0,0,0,0,0,0,0,0,0,-3.5943,-3.5944,0,-3.6051,-3.6052,-3.6054,-3.5959,-3.5955,-3.5951,-3.5947,-3.6059,-3.6065,-3.6072,0,0,0,0,0,0,0,0,0,0,0,0,0,-3.5653,-3.5659,-3.5943,-3.5944,-3.5945,-3.6051,-3.6053,-3.6054,-3.5959,-3.5955,-3.595,-3.5945,-3.6057,-3.6064,-3.6072,0,0,0,0,0,0,0,0,0,0,0,0,0,-3.5772,-3.5661,-3.5942,-3.5911,-3.5909,-3.6051,-3.6053,-3.6054,-3.596,-3.5954,-3.5949,-3.5943,-3.6054,-3.6064,-3.6073,-3.6252,0,0,-3.6104,-3.6108,0,0,0,0,0,0,0,0,-3.5765,-3.5783,-3.5914,-3.5913,-3.5912,-3.5985,-3.5991,-3.6121,-3.5962,-3.5941,-3.5947,-3.594,-3.6039,-3.605,-3.6083,-3.6257,-3.6262,-3.6105,-3.6111,-3.6115,-3.6118,0,0,0,0,0,0,0,-3.5757,-3.5777,-3.5986,-3.5916,-3.5915,-3.5891,-3.5902,-3.6015,-3.6022,-3.5942,-3.5936,-3.595,-3.6037,-3.6074,-3.6085,-3.6264,-3.6104,-3.6113,-3.6119,-3.6123,-3.6588,-3.6594,0,0,0,0,0,0,-3.5752,-3.5771,-3.5982,-3.5989,-3.5822,-3.5901,-3.5913,-3.5968,-3.602,-3.6022,-3.5955,-3.5945,-3.606,-3.6074,-3.6089,-3.63,-3.6115,-3.6124,-3.613,-3.6582,-3.659,-3.6596,0,0,0,0,0,0,-3.5746,-3.5772,-3.5978,-3.5878,-3.5903,-3.5912,-3.5975,-3.5973,-3.6009,-3.6029,-3.603,-3.5991,-3.6056,-3.6075,-3.6212,-3.6303,-3.6129,-3.6138,-3.6574,-3.6584,-3.6593,-3.6726,0,0,0,0,0,0,-3.5738,-3.577,-3.5839,-3.5881,-3.5908,-3.61,-3.598,-3.5979,-3.6027,-3.6015,-3.6064,-3.6066,-3.6053,-3.6197,-3.6222,-3.6313,-3.6145,-3.6566,-3.6579,-3.659,-3.6713,-3.6738,-3.676,0,0,0,0,0,-3.5728,-3.5872,-3.5843,-3.5868,-3.5994,-3.6105,-3.6121,-3.6102,-3.6034,-3.6103,-3.6115,-3.6064,-3.6289,-3.6212,-3.6239,-3.6335,-3.656,-3.6575,-3.6589,-3.6702,-3.6733,-3.676,0,0,0,0,0,0,-3.5841,-3.5877,-3.5845,-3.6006,-3.6053,-3.6089,-3.6175,-3.6136,-3.6204,-3.619,-3.6164,-3.6176,-3.632,-3.6341,-3.6255,-3.651,-3.6414,-3.6434,-3.6491,-3.652,-3.6544,-3.6535,-3.6154,0,0,0,0,0,-3.5884,-3.5972,-3.5998,-3.6138,-3.6163,-3.6165,-3.6213,-3.6195,-3.6242,-3.6262,-3.6285,-3.6333,-3.6414,-3.6468,-3.6544,-3.6716,-3.6724,-3.6795,-3.6818,-3.6837,-3.6855,-3.6946,-3.6978,-3.6644,-3.6644,-3.6643,0,0,-3.5975,-3.6005,-3.6062,-3.6162,-3.6196,-3.6287,-3.6183,-3.6283,-3.635,-3.6277,-3.6408,-3.6426,-3.6479,-3.6633,-3.6703,-3.6655,-3.6949,-3.6856,-3.6871,-3.6878,-3.6964,-3.6996,-3.7024,-3.6654,-3.6652,-3.665,0,0,-3.6187,-3.6219,-3.6338,-3.6375,-3.6428,-3.6428,-3.6457,-3.6499,-3.6508,-3.6639,-3.6585,-3.6664,-3.6805,-3.6844,-3.6883,-3.7109,-3.7064,-3.7134,-3.7257,-3.7346,-3.7373,-3.7396,-3.7476,-3.7505,-3.7152,-3.7152,-3.7152,0,-3.6293,-3.6428,-3.6405,-3.6509,-3.6554,-3.6492,-3.6612,-3.6649,-3.6724,-3.6757,-3.6702,-3.6877,-3.6908,-3.707,-3.7125,-3.7159,-3.719,-3.7128,-3.7371,-3.7394,-3.7415,-3.7491,-3.7521,-3.716,-3.7159,-3.7159,-3.7158,0,-3.6555,-3.665,-3.674,-3.6814,-3.6869,-3.6981,-3.6975,-3.7033,-3.701,-3.7015,-3.7149,-3.7183,-3.7265,-3.7302,-3.7281,-3.7462,-3.743,-3.7374,-3.7277,-3.7455,-3.7526,-3.7555,-3.7172,-3.7169,-3.7167,-3.7165,0,0,-3.6841,-3.69,-3.6934,-3.6966,-3.702,-3.7092,-3.7201,-3.7281,-3.7331,-3.7385,-3.7475,-3.7596,-3.7543,-3.7587,-3.7569,-3.7648,-3.7823,-3.7581,-3.7582,-3.7625,-3.8024,-3.8066,-3.81,-3.7794,-3.78,-3.7804,-3.8019,0,-3.7054,-3.7244,-3.7226,-3.7405,-3.7492,-3.7433,-3.7528,-3.7571,-3.758,-3.7654,-3.7662,-3.7748,-3.7673,-3.7699,-3.7774,-3.7786,-3.7903,-3.777,-3.7877,-3.7882,-3.7866,-3.8137,-3.8181,-3.8383,-3.8047,-3.8052,-3.8055,0,-3.7329,-3.7392,-3.758,-3.762,-3.7655,-3.7741,-3.7811,-3.7884,-3.7931,-3.7931,-3.798,-3.7948,-3.8057,-3.7958,-3.8108,-3.8018,-3.8061,-3.8074,-3.8081,-3.809,-3.7979,-3.8152,-3.8447,-3.8477,-3.8098,-3.8095,-3.8092,0,-3.7517,-3.765,-3.7779,-3.7809,-3.7858,-3.792,-3.7943,-3.7985,-3.8033,-3.8095,-3.8126,-3.8201,-3.8241,-3.8299,-3.8288,-3.8217,-3.8441,-3.8341,-3.8444,-3.8444,-3.8493,-3.849,-3.8798,-3.8522,-3.8522,-3.8521,-3.852,0,-3.7757,-3.7874,-3.7864,-3.7944,-3.8073,-3.8051,-3.818,-3.8196,-3.8233,-3.8315,-3.8269,-3.8346,-3.8327,-3.8404,-3.8397,-3.8521,-3.854,-3.8543,-3.8539,-3.8547,-3.8546,-3.8574,-3.8559,-3.8529,-3.8527,-3.8526,-3.8524,0,-3.799,-3.7988,-3.8125,-3.816,-3.8172,-3.8266,-3.8296,-3.8371,-3.8375,-3.8478,-3.8501,-3.8508,-3.8596,-3.8591,-3.869,-3.8685,-3.8838,-3.8819,-3.8823,-3.8818,-3.8921,-3.8911,-3.9257,-3.93,-3.8997,-3.9,-3.9003,0,-3.8143,-3.8231,-3.8276,-3.8327,-3.8355,-3.8438,-3.8487,-3.8469,-3.8522,-3.8582,-3.8649,-3.8733,-3.8798,-3.8941,-3.8955,-3.9031,-3.9012,-3.9128,-3.9023,-3.9027,-3.9013,-3.9007,-3.9015,-3.9148,-3.9152,-3.9155,-3.9157,0,-3.8414,-3.8408,-3.848,-3.8553,-3.8613,-3.8669,-3.872,-3.8764,-3.8751,-3.8813,-3.8902,-3.8953,-3.9054,-3.9137,-3.9209,-3.9233,-3.9193,-3.919,-3.9217,-3.9226,-3.9224,-3.9225,-3.8878,-3.9182,-3.9179,-3.9178,-3.9176,-3.9175,-3.861,-3.8686,-3.8729,-3.8811,-3.8848,-3.8897,-3.8968,-3.8981,-3.9055,-3.9135,-3.912,-3.922,-3.9264,-3.9357,-3.9387,-3.9465,-3.9423,-3.9464,-3.9474,-3.9484,-3.9495,-3.9212,-3.9478,-3.9477,-3.9477,-3.9476,-3.9475,0,-3.8878,-3.8903,-3.8979,-3.9051,-3.9116,-3.9072,-3.9127,-3.9183,-3.9271,-3.9316,-3.9381,-3.9483,-3.9564,-3.9583,-3.966,-3.9718,-3.9702,-3.9739,-3.9734,-3.974,-3.9528,-3.9496,-3.9751,-3.9751,-3.9751,-3.9751,-3.9751,-3.9751,-3.9025,-3.9151,-3.915,-3.9293,-3.9316,-3.9414,-3.9448,-3.9493,-3.9528,-3.9643,-3.971,-3.9722,-3.9757,-3.9835,-3.9907,-3.9911,-3.9941,-3.9985,-3.9982,-3.9783,-3.9755,-3.9729,-3.9699,-3.9992,-3.9993,-4.0187,-4.0189,-4.019]},{"header":{"parameterUnit":"m.s-1","parameterCategory":1,"la1":30.2991,"la2":30.254,"lo1":-89.0895,"lo2":-89.0444,"dy":0.0017,"dx":0.0017,"nx":28,"ny":28,"refTime":"2023-11-02T03:00:00:Z","depth":0,"parameterNumber":3,"parameterNumberName":"V-component_of_WINDS"},"data":[0,0,0,0,0,0,0,0,0,0,0,0,0,0,0,0,0,0,0,0,0,0,0,0,0,0,0,0,0,0,0,0,0,0,0,0,0,0,0,0,0,0,0,0,0,0,0,0,0,0,0,0,0,0,0,0,0,0,-2.5009,-2.5009,0,-2.4991,-2.4991,-2.4991,-2.5016,-2.5017,-2.5018,-2.5018,-2.4997,-2.4995,-2.4994,0,0,0,0,0,0,0,0,0,0,0,0,0,-2.506,-2.5059,-2.5009,-2.5009,-2.5009,-2.4991,-2.4991,-2.4991,-2.5016,-2.5017,-2.5018,-2.5019,-2.4997,-2.4995,-2.4994,0,0,0,0,0,0,0,0,0,0,0,0,0,-2.504,-2.5059,-2.5009,-2.5019,-2.502,-2.4991,-2.4991,-2.499,-2.5015,-2.5017,-2.5018,-2.5019,-2.4998,-2.4996,-2.4994,-2.4953,0,0,-2.4987,-2.4986,0,0,0,0,0,0,0,0,-2.5041,-2.5038,-2.5018,-2.5018,-2.5019,-2.5007,-2.5001,-2.4978,-2.5015,-2.5017,-2.5018,-2.502,-2.4999,-2.4997,-2.499,-2.4952,-2.4951,-2.4987,-2.4986,-2.4985,-2.4984,0,0,0,0,0,0,0,-2.5042,-2.5038,-2.5002,-2.5018,-2.5018,-2.5023,-2.5021,-2.4997,-2.5,-2.5017,-2.5019,-2.5016,-2.4999,-2.4992,-2.499,-2.4951,-2.4987,-2.4985,-2.4984,-2.4983,-2.4873,-2.4871,0,0,0,0,0,0,-2.5043,-2.504,-2.5003,-2.5001,-2.5034,-2.5021,-2.5019,-2.501,-2.5001,-2.5001,-2.5015,-2.5018,-2.4995,-2.4992,-2.4989,-2.4937,-2.4985,-2.4983,-2.4981,-2.4874,-2.4872,-2.4871,0,0,0,0,0,0,-2.5044,-2.5039,-2.5003,-2.5021,-2.5017,-2.5018,-2.5007,-2.5008,-2.5001,-2.5,-2.5,-2.5007,-2.4996,-2.4992,-2.4961,-2.4937,-2.4982,-2.498,-2.4876,-2.4874,-2.4872,-2.4835,0,0,0,0,0,0,-2.5045,-2.504,-2.5026,-2.502,-2.5016,-2.4977,-2.5006,-2.5007,-2.4998,-2.5001,-2.4992,-2.4992,-2.4997,-2.4964,-2.4959,-2.4934,-2.4978,-2.4878,-2.4875,-2.4872,-2.4838,-2.4831,-2.4825,0,0,0,0,0,-2.5047,-2.5017,-2.5025,-2.502,-2.4999,-2.4975,-2.4972,-2.4979,-2.4996,-2.498,-2.4979,-2.4992,-2.4941,-2.496,-2.4955,-2.493,-2.488,-2.4876,-2.4873,-2.4841,-2.4833,-2.4826,0,0,0,0,0,0,-2.5019,-2.5016,-2.5025,-2.4993,-2.4984,-2.498,-2.4961,-2.4971,-2.4957,-2.496,-2.4969,-2.4966,-2.4932,-2.4928,-2.495,-2.4887,-2.4913,-2.4908,-2.489,-2.4883,-2.4877,-2.4876,-2.4976,0,0,0,0,0,-2.5009,-2.4992,-2.499,-2.4961,-2.4956,-2.4959,-2.495,-2.4955,-2.4946,-2.4942,-2.4939,-2.4928,-2.4909,-2.4896,-2.4879,-2.4839,-2.4834,-2.4818,-2.4812,-2.4807,-2.4801,-2.4774,-2.4765,-2.4859,-2.4859,-2.4859,0,0,-2.4988,-2.4984,-2.4973,-2.4955,-2.4949,-2.4928,-2.4956,-2.4934,-2.4918,-2.4939,-2.4908,-2.4905,-2.4893,-2.4855,-2.4839,-2.4851,-2.4774,-2.4802,-2.4798,-2.4795,-2.4769,-2.476,-2.4752,-2.4856,-2.4856,-2.4857,0,0,-2.4938,-2.4936,-2.4909,-2.4902,-2.4893,-2.4894,-2.4888,-2.4881,-2.4879,-2.4849,-2.4863,-2.4843,-2.4812,-2.4801,-2.4792,-2.4734,-2.4744,-2.4729,-2.4695,-2.4668,-2.466,-2.4654,-2.4628,-2.462,-2.4724,-2.4724,-2.4724,0,-2.4913,-2.4884,-2.4894,-2.487,-2.486,-2.4878,-2.4849,-2.4842,-2.4826,-2.4818,-2.4833,-2.479,-2.4784,-2.4741,-2.4727,-2.4721,-2.471,-2.4728,-2.4661,-2.4654,-2.4648,-2.4624,-2.4615,-2.4722,-2.4722,-2.4722,-2.4722,0,-2.4851,-2.483,-2.481,-2.4794,-2.4782,-2.4756,-2.4759,-2.4745,-2.4752,-2.4751,-2.4716,-2.471,-2.4689,-2.468,-2.4687,-2.4637,-2.4644,-2.466,-2.4685,-2.4637,-2.4614,-2.4605,-2.4719,-2.4719,-2.472,-2.4721,0,0,-2.4782,-2.4771,-2.4763,-2.4754,-2.4743,-2.4726,-2.47,-2.468,-2.4665,-2.4654,-2.4628,-2.46,-2.4613,-2.4602,-2.4607,-2.4584,-2.4533,-2.4602,-2.4602,-2.4585,-2.4471,-2.4455,-2.4445,-2.4541,-2.4539,-2.4538,-2.447,0,-2.4729,-2.4683,-2.469,-2.4644,-2.4623,-2.4639,-2.4614,-2.4603,-2.4601,-2.4581,-2.4578,-2.4556,-2.4578,-2.457,-2.4549,-2.4544,-2.4509,-2.4549,-2.4512,-2.4511,-2.451,-2.4434,-2.4419,-2.4355,-2.4461,-2.446,-2.4459,0,-2.4661,-2.4646,-2.4598,-2.4587,-2.4578,-2.4556,-2.4536,-2.4518,-2.4504,-2.4504,-2.449,-2.4498,-2.4467,-2.4495,-2.445,-2.4477,-2.4463,-2.4458,-2.4455,-2.4448,-2.4479,-2.442,-2.4335,-2.4324,-2.4446,-2.4447,-2.4448,0,-2.461,-2.4578,-2.4544,-2.4536,-2.4524,-2.4507,-2.4501,-2.4489,-2.4475,-2.4457,-2.4447,-2.4426,-2.4413,-2.4395,-2.4395,-2.4417,-2.4347,-2.4377,-2.4342,-2.4342,-2.4324,-2.4324,-2.423,-2.4322,-2.4323,-2.4323,-2.4323,0,-2.4547,-2.4516,-2.452,-2.4498,-2.4462,-2.447,-2.4433,-2.4429,-2.4417,-2.4393,-2.4406,-2.4382,-2.4387,-2.4362,-2.4363,-2.4322,-2.4317,-2.4313,-2.4312,-2.4309,-2.4309,-2.4296,-2.4299,-2.432,-2.4321,-2.4321,-2.4322,0,-2.4483,-2.4485,-2.4448,-2.4439,-2.4435,-2.4408,-2.4399,-2.4377,-2.4376,-2.4344,-2.4337,-2.4333,-2.4304,-2.4304,-2.4272,-2.4271,-2.4219,-2.4227,-2.4224,-2.4223,-2.4186,-2.4188,-2.4078,-2.4061,-2.4169,-2.4168,-2.4167,0,-2.4441,-2.4417,-2.4404,-2.4389,-2.4381,-2.4357,-2.4342,-2.4348,-2.4331,-2.4312,-2.4291,-2.4263,-2.4241,-2.4193,-2.4186,-2.4159,-2.4163,-2.4126,-2.4159,-2.4154,-2.4155,-2.4155,-2.4149,-2.4118,-2.4117,-2.4116,-2.4115,0,-2.4364,-2.4365,-2.4345,-2.4322,-2.4304,-2.4287,-2.4271,-2.4258,-2.4261,-2.4241,-2.4211,-2.4194,-2.4159,-2.4129,-2.4103,-2.4093,-2.4102,-2.4106,-2.4095,-2.4089,-2.4085,-2.4081,-2.4201,-2.4107,-2.4108,-2.4109,-2.4109,-2.4109,-2.4306,-2.4283,-2.427,-2.4244,-2.4233,-2.4217,-2.4194,-2.4189,-2.4165,-2.4137,-2.4142,-2.4107,-2.4089,-2.4055,-2.4043,-2.4014,-2.4026,-2.4012,-2.4008,-2.4003,-2.3996,-2.4094,-2.401,-2.401,-2.401,-2.401,-2.401,0,-2.4225,-2.4217,-2.4194,-2.417,-2.4149,-2.4162,-2.4144,-2.4124,-2.4094,-2.4078,-2.4055,-2.4018,-2.3989,-2.3978,-2.3948,-2.3926,-2.3929,-2.3918,-2.3917,-2.3913,-2.399,-2.3999,-2.3915,-2.3915,-2.3915,-2.3915,-2.3915,-2.3915,-2.4181,-2.4141,-2.414,-2.4094,-2.4085,-2.4052,-2.404,-2.4023,-2.4009,-2.3968,-2.3943,-2.3937,-2.3921,-2.389,-2.3861,-2.3859,-2.3845,-2.383,-2.3828,-2.3899,-2.3909,-2.3918,-2.3926,-2.3828,-2.3828,-2.3753,-2.3753,-2.3752]}]]